When you browse on this site, cookies collect data to enhance your experience and personalize the content and advertising you see.
Visit our Privacy Policy to learn more. By continuing to use the site, you agree to this use of cookies and data.
  • In United Kingdom
  • List of Countries
  • For 7 days
  • Water Temperature
  • Satellite Maps
  • Weather Map
  • Weather Widgets
  • user-avatar
    Login

    Hourly Weather Mottola

    Today, 20 May, Monday

    Time Temperature Precipitation Wind Pressure Humidity
    00:00 +14°C° 0 mm 2 mps 732 mmHg 75%
    01:00 +14°C° 0 mm 2 mps 732 mmHg 75%
    02:00 +14°C° 0 mm 2 mps 732 mmHg 74%
    03:00 +13°C° 0 mm 2 mps 733 mmHg 73%
    04:00 +13°C° 0 mm 1 mps 733 mmHg 72%
    05:00 +14°C° 0 mm 1 mps 733 mmHg 68%
    06:00 +15°C° 0 mm 2 mps 733 mmHg 64%
    07:00 +16°C° 0 mm 2 mps 734 mmHg 60%
    08:00 +18°C° 0.1 mm 2 mps 734 mmHg 56%
    09:00 +19°C° 0.1 mm 3 mps 734 mmHg 53%
    10:00 +20°C° 0.1 mm 4 mps 735 mmHg 49%
    11:00 +20°C° 0.5 mm 4 mps 735 mmHg 48%
    12:00 +21°C° 0.5 mm 5 mps 735 mmHg 46%
    13:00 +21°C° 0.5 mm 5 mps 735 mmHg 45%
    14:00 +21°C° 0.9 mm 5 mps 735 mmHg 46%
    15:00 +21°C° 0.9 mm 5 mps 735 mmHg 48%
    16:00 +20°C° 0.9 mm 5 mps 735 mmHg 49%
    17:00 +19°C° 0.3 mm 5 mps 735 mmHg 53%
    18:00 +18°C° 0.3 mm 4 mps 735 mmHg 56%
    19:00 +15°C° 0.3 mm 4 mps 735 mmHg 60%
    20:00 +15°C° 0 mm 4 mps 735 mmHg 63%
    21:00 +14°C° 0 mm 4 mps 735 mmHg 65%
    22:00 +13°C° 0 mm 4 mps 735 mmHg 68%
    23:00 +12°C° 0 mm 4 mps 735 mmHg 71%

    Tomorrow, 21 May, Tuesday

    Time Temperature Precipitation Wind Pressure Humidity
    00:00 +12°C° 0 mm 4 mps 735 mmHg 75%
    01:00 +11°C° 0 mm 3 mps 736 mmHg 78%
    02:00 +11°C° 0 mm 3 mps 735 mmHg 79%
    03:00 +11°C° 0 mm 3 mps 735 mmHg 81%
    04:00 +12°C° 0 mm 2 mps 735 mmHg 82%
    05:00 +13°C° 0 mm 2 mps 735 mmHg 78%
    06:00 +14°C° 0 mm 2 mps 736 mmHg 74%
    07:00 +15°C° 0 mm 2 mps 736 mmHg 71%
    08:00 +17°C° 0 mm 3 mps 736 mmHg 65%
    09:00 +18°C° 0 mm 3 mps 737 mmHg 60%
    10:00 +20°C° 0 mm 4 mps 737 mmHg 54%
    11:00 +20°C° 0.3 mm 4 mps 737 mmHg 53%
    12:00 +21°C° 0.3 mm 4 mps 738 mmHg 53%
    13:00 +21°C° 0.3 mm 4 mps 738 mmHg 52%
    14:00 +21°C° 0.1 mm 4 mps 738 mmHg 54%
    15:00 +20°C° 0.1 mm 4 mps 737 mmHg 57%
    16:00 +20°C° 0.1 mm 4 mps 737 mmHg 59%
    17:00 +19°C° 0.1 mm 4 mps 738 mmHg 63%
    18:00 +18°C° 0.1 mm 4 mps 738 mmHg 67%
    19:00 +17°C° 0.1 mm 4 mps 738 mmHg 71%
    20:00 +16°C° 0 mm 3 mps 738 mmHg 72%
    21:00 +16°C° 0 mm 3 mps 738 mmHg 72%
    22:00 +15°C° 0 mm 2 mps 739 mmHg 73%
    23:00 +14°C° 0 mm 2 mps 738 mmHg 73%

    Day after tomorrow, 22 May, Wednesday

    Time Temperature Precipitation Wind Pressure Humidity
    00:00 +14°C° 0 mm 2 mps 738 mmHg 72%
    01:00 +13°C° 0 mm 2 mps 738 mmHg 72%
    02:00 +13°C° 0 mm 1 mps 738 mmHg 70%
    03:00 +13°C° 0 mm 1 mps 738 mmHg 69%
    04:00 +13°C° 0 mm 1 mps 738 mmHg 68%
    05:00 +14°C° 0 mm 1 mps 738 mmHg 63%
    06:00 +16°C° 0 mm 1 mps 739 mmHg 58%
    07:00 +18°C° 0 mm 1 mps 739 mmHg 52%
    08:00 +20°C° 0 mm 1 mps 739 mmHg 49%
    09:00 +21°C° 0 mm 1 mps 739 mmHg 45%
    10:00 +21°C° 0 mm 2 mps 740 mmHg 41%
    11:00 +23°C° 0 mm 2 mps 740 mmHg 40%
    12:00 +24°C° 0 mm 2 mps 740 mmHg 38%
    13:00 +24°C° 0 mm 3 mps 740 mmHg 36%
    14:00 +24°C° 0 mm 3 mps 739 mmHg 38%
    15:00 +22°C° 0 mm 3 mps 739 mmHg 40%
    16:00 +22°C° 0 mm 3 mps 738 mmHg 42%
    17:00 +20°C° 0 mm 3 mps 738 mmHg 47%
    18:00 +19°C° 0 mm 2 mps 738 mmHg 52%
    19:00 +18°C° 0 mm 1 mps 738 mmHg 57%
    20:00 +18°C° 0 mm 1 mps 738 mmHg 56%
    21:00 +16°C° 0 mm 1 mps 739 mmHg 55%
    22:00 +16°C° 0 mm 1 mps 739 mmHg 54%
    23:00 +16°C° 0 mm 1 mps 738 mmHg 53%

    23 May, Thursday

    Time Temperature Precipitation Wind Pressure Humidity
    00:00 +15°C° 0 mm 0 mps 738 mmHg 52%
    01:00 +15°C° 0 mm 0 mps 738 mmHg 52%
    02:00 +15°C° 0 mm 1 mps 738 mmHg 54%
    03:00 +15°C° 0 mm 1 mps 738 mmHg 56%
    04:00 +15°C° 0 mm 2 mps 738 mmHg 58%
    05:00 +16°C° 0 mm 2 mps 738 mmHg 59%
    06:00 +17°C° 0 mm 3 mps 738 mmHg 60%
    07:00 +18°C° 0 mm 4 mps 738 mmHg 61%
    08:00 +20°C° 0 mm 4 mps 738 mmHg 57%
    09:00 +21°C° 0 mm 4 mps 738 mmHg 53%
    10:00 +22°C° 0 mm 4 mps 738 mmHg 49%
    11:00 +24°C° 0 mm 3 mps 738 mmHg 48%
    12:00 +24°C° 0 mm 3 mps 738 mmHg 47%
    13:00 +25°C° 0 mm 3 mps 738 mmHg 46%
    14:00 +24°C° 0 mm 3 mps 737 mmHg 47%
    15:00 +24°C° 0 mm 3 mps 737 mmHg 48%
    16:00 +22°C° 0 mm 3 mps 737 mmHg 49%
    17:00 +21°C° 0 mm 3 mps 737 mmHg 52%
    18:00 +20°C° 0 mm 3 mps 736 mmHg 55%
    19:00 +19°C° 0 mm 3 mps 736 mmHg 58%
    20:00 +18°C° 0 mm 3 mps 736 mmHg 59%
    21:00 +17°C° 0 mm 3 mps 736 mmHg 60%
    22:00 +17°C° 0 mm 3 mps 737 mmHg 61%
    23:00 +16°C° 0 mm 3 mps 736 mmHg 63%

    24 May, Friday

    Time Temperature Precipitation Wind Pressure Humidity
    00:00 +16°C° 0 mm 3 mps 736 mmHg 66%
    01:00 +16°C° 0 mm 3 mps 736 mmHg 68%
    02:00 +14°C° 0 mm 3 mps 736 mmHg 70%
    03:00 +14°C° 0 mm 3 mps 735 mmHg 71%
    04:00 +14°C° 0 mm 3 mps 735 mmHg 72%
    05:00 +15°C° 0 mm 4 mps 735 mmHg 69%
    06:00 +17°C° 0 mm 4 mps 735 mmHg 66%
    07:00 +17°C° 0 mm 5 mps 736 mmHg 63%
    08:00 +20°C° 0 mm 5 mps 736 mmHg 58%
    09:00 +21°C° 0 mm 5 mps 736 mmHg 54%
    10:00 +23°C° 0 mm 5 mps 736 mmHg 49%
    11:00 +23°C° 0 mm 5 mps 736 mmHg 48%
    12:00 +25°C° 0 mm 5 mps 735 mmHg 46%
    13:00 +25°C° 0 mm 5 mps 735 mmHg 44%
    14:00 +25°C° 0 mm 4 mps 735 mmHg 46%
    15:00 +25°C° 0 mm 4 mps 735 mmHg 47%
    16:00 +25°C° 0 mm 3 mps 734 mmHg 48%
    17:00 +24°C° 0.1 mm 2 mps 734 mmHg 54%
    18:00 +21°C° 0.1 mm 2 mps 734 mmHg 60%
    19:00 +21°C° 0.1 mm 1 mps 734 mmHg 66%
    20:00 +20°C° 0.1 mm 1 mps 734 mmHg 69%
    21:00 +19°C° 0.1 mm 1 mps 734 mmHg 72%
    22:00 +19°C° 0.1 mm 1 mps 734 mmHg 75%
    23:00 +18°C° 0.1 mm 1 mps 733 mmHg 76%

    25 May, Saturday

    Time Temperature Precipitation Wind Pressure Humidity
    00:00 +18°C° 0.1 mm 1 mps 733 mmHg 78%
    01:00 +16°C° 0.1 mm 1 mps 733 mmHg 80%
    02:00 +16°C° 0.2 mm 1 mps 732 mmHg 80%
    03:00 +15°C° 0.2 mm 1 mps 732 mmHg 81%
    04:00 +15°C° 0.2 mm 1 mps 732 mmHg 81%
    05:00 +16°C° 0 mm 1 mps 732 mmHg 76%
    06:00 +18°C° 0 mm 1 mps 732 mmHg 70%
    07:00 +19°C° 0 mm 1 mps 732 mmHg 65%
    08:00 +19°C° 0 mm 2 mps 732 mmHg 59%
    09:00 +20°C° 0 mm 3 mps 732 mmHg 53%
    10:00 +22°C° 0 mm 4 mps 732 mmHg 47%
    11:00 +21°C° 0.1 mm 5 mps 732 mmHg 51%
    12:00 +21°C° 0.1 mm 6 mps 731 mmHg 54%
    13:00 +21°C° 0.1 mm 7 mps 731 mmHg 58%
    14:00 +20°C° 0.6 mm 6 mps 731 mmHg 65%
    15:00 +17°C° 0.6 mm 5 mps 730 mmHg 72%
    16:00 +17°C° 0.6 mm 4 mps 730 mmHg 79%
    17:00 +15°C° 0.8 mm 4 mps 730 mmHg 81%
    18:00 +16°C° 0.8 mm 3 mps 729 mmHg 84%
    19:00 +15°C° 0.8 mm 2 mps 729 mmHg 87%
    20:00 +14°C° 0.4 mm 3 mps 729 mmHg 88%
    21:00 +14°C° 0.4 mm 3 mps 729 mmHg 90%
    22:00 +14°C° 0.4 mm 3 mps 730 mmHg 91%
    23:00 +14°C° 0.5 mm 3 mps 729 mmHg 91%
    Show more